Regional Weather Roundup
Issued by NWS

Home | Current Version | Previous Version | Graphics & Text | Print | Product List | Glossary On
Versions: 1 2 3 4 5 6 7 8 9 10 11 12 13 14 15 16 17 18 19 20 21 22 23 24 25 26 27 28 29 30 31 32 33 34 35 36 37 38 39 40 41 42 43 44 45 46 47 48 49 50
000
ASUS43 KMPX 230601
RWRMN
WEATHER ROUNDUP FOR MINNESOTA
NATIONAL WEATHER SERVICE TWIN CITIES/CHANHASSEN MN
1200 AM CST MON JAN 23 2017


NOTE: "FAIR" INDICATES FEW OR NO CLOUDS BELOW 12,000 FEET WITH NO
SIGNIFICANT WEATHER AND/OR OBSTRUCTIONS TO VISIBILITY. N/A MEANS
CURRENT SKY AND/OR WEATHER CONDITIONS ARE NOT AVAILABLE.

MNZ060>063-068>070-230700-
   Twin Cities Metro

CITY           SKY/WX    TMP DP  RH WIND       PRES   REMARKS
TWIN CITIES    DRIZZLE   34  31  88 W6        29.78F FOG     WCI  29
6HR MIN TEMP:  34; 6HR MAX TEMP:  38; 6HR PCP: TRACE;

ST PAUL        CLOUDY    34  34 100 W7        29.79F FOG     WCI  28
CRYSTAL        CLOUDY    34  31  88 W7        29.77F FOG     WCI  28
BLAINE         CLOUDY    36  36 100 W7        29.77F FOG
LAKEVILLE      CLOUDY    30  30 100 W8        29.78F FOG     WCI  23
EDEN PRAIRIE   CLOUDY    33  32  96 W7        29.77F FOG     WCI  27
6HR MIN TEMP:  33; 6HR MAX TEMP:  37;

SOUTH ST PAUL  CLOUDY    34  34  99 W5        29.78F FOG     WCI  30
LAKE ELMO      CLOUDY    34  34 100 W6        29.78F FOG     WCI  29
$$
MNZ001>005-007-008-013>017-022>024-027-028-230700-
   Northwest Minnesota

CITY           SKY/WX    TMP DP  RH WIND       PRES   REMARKS
BEMIDJI        CLOUDY    31  31 100 W7        29.75R FOG     WCI  25
HALLOCK        CLOUDY    32  30  93 CALM      29.75S
ROSEAU         LGT SNOW  34  28  80 SW3       29.74S
WARROAD        LGT SNOW  34  28  80 SW6       29.74S WCI  29
THIEF RVR FALL CLOUDY    31  29  92 SW7       29.76S WCI  24
CROOKSTON      CLOUDY    32  30  93 W6        29.77F WCI  26
FOSSTON        CLOUDY    28  28 100 W6        29.76F FOG     WCI  22
DETROIT LAKES  CLOUDY    32  32 100 W7        29.78S FOG     WCI  26
MOORHEAD       CLOUDY    32  28  86 NW7       29.80S WCI  26
PARK RAPIDS    CLOUDY    32  29  88 W8        29.75S FOG     WCI  25
MAHNOMEN       CLOUDY    30  30  99 W6        29.76F FOG     WCI  24
$$
MNZ006-009>011-018-025>026-230700-
   North Central Minnesota

CITY           SKY/WX    TMP DP  RH WIND       PRES   REMARKS
BAUDETTE       FOG       33  32  96 CALM      29.73R VSB 1/2
FLAG ISLAND    FOG       32  32 100 CALM      29.72S VSB 3/4
INTL FALLS     FOG       34  33  96 W3        29.72S VSB 3/4
6HR MIN TEMP:  34; 6HR MAX TEMP:  35;

WASKISH        CLOUDY    34  32  93 W6        29.75S FOG     WCI  29
BIG FORK       CLOUDY    36  34  93 CALM      29.74S FOG
LONGVILLE      CLOUDY    34  34 100 NW3       29.74S
GRAND RAPIDS   CLOUDY    34  33  96 NW3       29.75S FOG
CRANE LAKE     FOG       30  30 100 CALM      29.75R VSB 1/2
ORR            FOG       32  30  93 CALM      29.70S VSB 1
COOK           CLOUDY    32  32 100 CALM      29.73S FOG
WALKER         CLOUDY    32  32  99 W5        29.74F FOG     WCI  27
$$
MNZ012-019>021-037-230700-
   Northeast Minnesota

CITY           SKY/WX    TMP DP  RH WIND       PRES   REMARKS
DULUTH         CLOUDY    35  34  96 W6        29.71S WCI  30
6HR MIN TEMP:  34; 6HR MAX TEMP:  36;

ELY            FOG       32  32 100 CALM      29.71S VSB 3/4
HIBBING        FOG       32  32 100 CALM      29.72S VSB 1/2
EVELETH        CLOUDY    33  33  99 W3        29.73S
DULUTH HARBOR  CLOUDY    36  34  93 SW6       29.75S
TWO HARBORS    CLOUDY    37  34  87 CALM      29.70S
SILVER BAY     CLOUDY    36  36 100 CALM      29.70S
GRAND MARAIS     N/A     36  33  89 CALM      29.72R
G MARAIS ARPRT CLOUDY    30  28  93 CALM      29.69R FOG
$$
MNZ029>031-032-039>041-046>048-054>057-064-230700-
   West Central Minnesota

CITY           SKY/WX    TMP DP  RH WIND       PRES   REMARKS
FERGUS FALLS   CLOUDY    30  30 100 NW7       29.83F FOG     WCI  23
WHEATON        CLOUDY    37  37 100 W6        29.83F
MORRIS         CLOUDY    32  32 100 NW8       29.80S FOG     WCI  25
ALEXANDRIA     CLOUDY    30  29  96 NW9       29.78S WCI  22
ELBOW LAKE     CLOUDY    31  31 100 W8        29.80S FOG     WCI  23
WADENA         CLOUDY    30  30 100 W3        29.76F FOG
GLENWOOD       CLOUDY    30  30 100 NW13      29.79S FOG     WCI  20
APPLETON       CLOUDY    34  30  86 NW8       29.82R WCI  27
ORTONVILLE     CLOUDY    34  28  80 CALM      29.82S
MADISON        CLOUDY    36  36 100 W7        29.82F
WILLMAR        CLOUDY    34  32  93 CALM      29.82S
$$
MNZ033>034-036-042>043-049>051-058-059-230700-
   Central Minnesota

CITY           SKY/WX    TMP DP  RH WIND       PRES   REMARKS
ST CLOUD       CLOUDY    33  33 100 W8        29.78S FOG     WCI  26
6HR MIN TEMP:  33; 6HR MAX TEMP:  35;

SAUK CENTRE    CLOUDY    32  31  97 W9        29.78F FOG     WCI  24
PAYNESVILLE    CLOUDY    32  32 100 W5        29.79F FOG     WCI  27
AITKIN         CLOUDY    37  34  87 CALM      29.74S FOG
PINE RIVER     CLOUDY    32  32 100 W3        29.79S FOG
BRAINERD       CLOUDY    32  32 100 W5        29.76S FOG     WCI  27
STAPLES        CLOUDY    30  30 100 W5        29.77S FOG     WCI  25
LONG PRAIRIE   CLOUDY    32  30  93 W5        29.78S FOG     WCI  27
LITTLE FALLS   CLOUDY    32  32 100 W6        29.78F FOG     WCI  26
LITCHFIELD     CLOUDY    34  34 100 W5        29.80S FOG     WCI  30
BUFFALO        CLOUDY    32  32  99 W6        29.80S FOG     WCI  27
MAPLE LAKE     CLOUDY    33  33 100 W6        29.80S FOG     WCI  28
HUTCHINSON     CLOUDY    33  33 100 W7        29.81S FOG     WCI  27
$$
MNZ037-044-045-052-053-230700-
   East Central Minnesota

CITY           SKY/WX    TMP DP  RH WIND       PRES   REMARKS
PRINCETON      CLOUDY    34  34 100 W3        29.78S FOG
MORA           CLOUDY    34  32  93 W3        29.78F FOG
CAMBRIDGE      CLOUDY    36  36 100 W3        29.76R FOG
RUSH CITY      CLOUDY    34  34 100 W5        29.76F FOG     WCI  30
MOOSE LAKE     FOG       34  34 100 W3        29.73F VSB 3/4
HINCKLEY       CLOUDY    36  36 100 CALM      29.76S FOG
CLOQUET        CLOUDY    36  34  93 W3        29.73S FOG
MCGREGOR       CLOUDY    34  34 100 CALM      29.75S
$$
MNZ071>073-080-081-089-090-097-098-230700-
   Southwest Minnesota

CITY           SKY/WX    TMP DP  RH WIND       PRES   REMARKS
MONTEVIDEO     CLOUDY    34  34 100 NW5       29.84R WCI  30
GRANITE FALLS  CLOUDY    34  32  93 W8        29.84S WCI  27
CANBY          CLOUDY    34  31  90 NW9       29.84S WCI  27
MARSHALL       CLOUDY    33  29  85 NW10      29.83S WCI  25
REDWOOD FALLS  CLOUDY    33  29  85 W7        29.82S WCI  27
OLIVIA         CLOUDY    34  32  93 W8        29.81S WCI  27
PIPESTONE      CLOUDY    32  28  86 N9        29.82S WCI  24
WINDOM         CLOUDY    32  30  93 W12       29.82S WCI  23
WORTHINGTON    CLOUDY    30  28  92 NW12      29.83F WCI  20
JACKSON        CLOUDY    30  28  93 NW8       29.83S FOG     WCI  23
TRACY          CLOUDY    33  31  92 W3        29.83S
SLAYTON        CLOUDY    31  28  88 NW13G20   29.83S WCI  21
$$
MNZ065>067-074>077-082>085-091>093-230700-
   South Central Minnesota

CITY           SKY/WX    TMP DP  RH WIND       PRES   REMARKS
MANKATO        CLOUDY    32  30  92 W8        29.80F FOG     WCI  25
NEW ULM        CLOUDY    32  30  93 W8        29.81F WCI  25
ST JAMES       CLOUDY    32  30  93 W13       29.83F WCI  22
FAIRMONT       CLOUDY    31  29  92 NW12      29.83S WCI  22
GLENCOE        CLOUDY    33  33 100 W6        29.79F FOG     WCI  28
OWATONNA       CLOUDY    32  30  93 W7        29.79F FOG     WCI  26
WASECA         CLOUDY    32  32 100 W8        29.81S FOG     WCI  25
ALBERT LEA     CLOUDY    32  32 100 NW9       29.79S FOG     WCI  24
$$
MNZ078>079-086>088-094>096-230700-
   Southeast Minnesota

CITY           SKY/WX    TMP DP  RH WIND       PRES   REMARKS
ROCHESTER      CLOUDY    32  32 100 NW12      29.77S WCI  23
6HR MIN TEMP:  32; 6HR MAX TEMP:  34;

RED WING       CLOUDY    36  34  93 W6        29.77F FOG
STANTON        CLOUDY    33  32  94 W9        29.78F FOG     WCI  26
DODGE CENTER   CLOUDY    30  30 100 NW9G17    29.77F FOG     WCI  22
WINONA         CLOUDY    34  34 100 CALM      29.78S FOG
AUSTIN         CLOUDY    32  30  93 NW12      29.79R FOG     WCI  23
PRESTON        CLOUDY    32  32  99 NW8       29.78R FOG     WCI  25
$$
ABBREVIATIONS USED IN REMARKS
   TC - TEMPERATURES IN CELSIUS
  WCI - WIND CHILL INDEX
   HX - HEAT INDEX
  VSB - VISIBILITY
$$



USA.gov is the U.S. government's official web portal to all federal, state and local government web resources and services.